Location: Estr�es
(49.8770°N, 3.0440°E)
Time: 15:33:11
(UTC+00:00)

Daily predictions for brighter satellites

Satellite Brightness Start Highest point End
(mag) Time Altitude Azimuth Time Altitude Azimuth Time Altitude Azimuth
USA 229 DEB 4.0 17:04:40 10° NW 17:11:57 89° NE 17:19:38 10° SE
BREEZE-M R/B 3.4 17:08:49 10° SW 17:11:59 51° SSE 17:17:54 10° ENE
USA 229 4.0 17:04:47 10° NW 17:12:03 89° NE 17:19:43 10° SE
Feng Yun 1-1 Rocket 4.5 17:08:22 10° SE 17:14:05 58° ENE 17:19:55 10° N
NOAA 12 4.2 17:09:29 10° SSE 17:14:46 87° WSW 17:20:08 10° NNW
Cosmos 1455 Rocket 3.3 17:10:38 10° SSW 17:14:57 74° WNW 17:19:18 10° N
Cosmos 2228 4.5 17:12:28 10° ESE 17:15:08 16° E 17:17:48 10° NE
Cosmos 1939 Rocket 3.4 17:14:24 10° SE 17:18:07 37° ENE 17:21:48 10° N
ERS-2 2.1 17:14:52 10° NNE 17:18:30 62° ESE 17:22:06 10° S
Cosmos 1356 Rocket 3.9 17:14:43 10° SSE 17:18:39 39° E 17:22:40 10° NNE
Cosmos 1420 Rocket 4.2 17:13:41 10° S 17:18:47 52° ESE 17:23:53 10° NNE
Cosmos 1954 Rocket 4.2 17:14:14 10° NNW 17:19:27 81° WSW 17:24:40 10° SSE
CZ-4C R/B 3.8 17:14:42 10° WNW 17:19:35 29° NNW 17:25:20 10° NE
Cosmos 1703 3.6 17:17:21 10° N 17:21:08 43° ENE 17:24:54 10° SSE
USA 281 4.1 17:16:39 10° S 17:23:04 55° WSW 17:29:31 10° NNW
CZ-4B R/B 1.3 17:20:22 10° NNE 17:23:41 60° ESE 17:26:53 10° S
NOSS 3-1 (A) 4.1 17:17:35 10° NW 17:24:58 87° NE 17:33:35 10° SE
Cosmos 1908 3.8 17:21:28 10° SSE 17:24:58 35° E 17:28:31 10° NNE
Cosmos 1470 3.9 17:21:30 10° SSW 17:25:14 47° WNW 17:29:01 10° N
Cosmos 1655 Rocket 4.1 17:20:29 10° N 17:26:54 78° E 17:33:19 10° SSE
Cosmos 1943 Rocket 2.7 17:21:43 10° SW 17:27:13 61° WNW 17:32:44 10° NNE
Cosmos 2227 Rocket 3.7 17:23:26 10° N 17:27:21 19° NE 17:31:15 10° E
CZ-4 R/B 2.2 17:24:08 10° SE 17:27:31 28° ENE 17:30:52 10° N
Cosmos 2279 Rocket 4.1 17:21:57 10° S 17:28:13 88° W 17:34:31 10° N
CZ-2D R/B 3.8 17:24:50 10° SE 17:28:20 35° ENE 17:31:49 10° N
Okean O Rocket 2.4 17:24:07 10° S 17:28:25 57° WSW 17:32:45 10° NNW
IRS-1C Rocket 4.2 17:24:11 10° SSE 17:29:20 59° ENE 17:34:32 10° N
FengYun 1-2 T 4.3 17:23:51 10° SSE 17:29:32 88° ENE 17:35:14 10° NNW
Cosmos 1741 Rocket 4.1 17:25:41 10° NNW 17:30:52 54° ENE 17:35:59 10° SE
Cosmos 1371 Rocket 4.4 17:25:49 10° SSW 17:31:08 69° WNW 17:36:27 10° NNE
SMAP 3.9 17:27:01 10° S 17:31:35 56° W 17:36:11 10° NNW
Cosmos 1758 4.3 17:27:40 10° SSW 17:31:40 53° WNW 17:35:42 10° N
USA 305 3.3 17:30:07 10° W 17:34:23 60° NNW 17:38:31 11° ENE
ERBS 2.3 17:31:50 10° SW 17:35:08 63° SE 17:38:17 11° ENE
Cosmos 2263 4.2 17:29:58 10° SSW 17:35:45 81° ESE 17:41:33 10° NNE
ATLAS 5 CENTAUR R/B 1.6 17:32:25 10° SW 17:36:32 80° NW 17:41:16 10° NE
COSMO-SKYMED 1 2.9 17:33:18 10° NNE 17:37:28 42° E 17:41:35 10° S
ATLAS 2AS CENTAUR R/B 4.2 17:33:12 10° WNW 17:39:55 29° N 17:46:20 10° NE
USA 306 3.3 17:36:09 10° W 17:40:24 58° NNW 17:44:16 12° ENE
Lacrosse 5 1.9 17:35:25 10° SW 17:40:30 88° SE 17:45:37 10° ENE
NOSS 2-1 (C) 2.8 17:38:16 10° SW 17:41:36 83° SE 17:45:13 10° NE
USA 276 3.3 17:38:43 10° W 17:41:45 40° SSW 17:44:46 10° SE
Cosmos 2056 Rocket 4.0 17:37:11 10° SW 17:42:21 64° WNW 17:47:29 10° NNE
Meteor 2-10 4.5 17:37:54 10° SSW 17:42:59 64° WNW 17:48:00 10° N
GRACE-FO 1 4.5 17:41:29 10° N 17:45:07 84° E 17:48:44 10° S
H-2A R/B 2.8 17:40:41 10° SE 17:45:25 33° ENE 17:50:13 10° N
GRACE-FO 2 4.5 17:41:51 10° N 17:45:31 85° E 17:49:06 10° S
SAR-Lupe-4 3.5 17:42:14 10° NNE 17:45:50 70° ESE 17:49:24 10° S
USA 215 3.5 17:40:04 11° E 17:46:21 60° NNE 17:52:46 10° WNW
NOSS 2-1 (D) 2.9 17:43:29 10° SW 17:46:48 88° NW 17:50:26 10° NE
ARGOS 4.1 17:43:37 10° ESE 17:48:06 27° ENE 17:52:37 10° N
Cosmos 1328 3.7 17:44:35 10° N 17:48:33 69° E 17:52:28 10° SSE
Okean-O 2.7 17:44:42 10° SSE 17:49:01 53° ENE 17:53:21 10° N
COSMOS 2487 2.5 17:46:25 10° NNW 17:49:49 54° ENE 17:53:11 10° SE
Cosmos 1850 Rocket 4.0 17:45:22 10° NNW 17:50:41 78° ENE 17:56:00 10° SSE
SeaSat 1 2.7 17:47:05 10° SE 17:51:48 48° NE 17:56:34 10° NNW
H-2A R/B 4.0 17:48:32 10° N 17:52:16 30° WNW 17:55:55 10° SW
CSL-04 Rocket 4.2 17:48:57 10° SE 17:54:04 40° ENE 17:59:13 10° N
Cosmos 1825 Rocket 3.6 17:53:21 10° N 17:57:48 61° ENE 18:02:12 10° SSE
Cosmos 2098 Rocket 4.2 17:55:49 10° NNW 17:59:11 36° W 18:02:04 10° SSW
Cosmos 1452 Rocket 3.5 17:54:00 10° SSW 17:59:13 71° ESE 18:04:30 10° NNE
Cosmos 1300 3.5 17:56:37 10° SSE 17:59:57 30° E 18:03:18 10° NNE
HJ-1C 4.4 17:58:45 20° ESE 18:00:00 26° ENE 18:02:51 10° N
YAOGAN 1 2.7 17:56:01 10° SSE 18:00:14 53° ENE 18:04:28 10° N
CZ-4 R/B 4.4 17:57:13 10° SSE 18:01:23 85° ENE 18:05:34 10° NNW
SKYMED 3 4.5 17:57:10 10° NNE 18:01:31 73° ESE 18:05:51 10° S
SAR-Lupe-1 4.2 18:00:08 10° NNE 18:03:45 79° WNW 18:07:20 10° SSW
Cosmos 304 Rocket 3.9 17:59:29 10° SSW 18:04:16 81° WNW 18:09:06 10° NNE
Meteor 2-21 Rocket 4.4 18:00:38 10° N 18:06:52 69° ENE 18:12:59 10° SSE
Cosmos 1656 Rocket 3.8 18:01:22 10° SSW 18:06:56 78° WNW 18:12:37 10° NNE
Cosmos 1400 Rocket 4.5 18:03:56 10° SE 18:12:02 - NNE 18:05:30 17° ESE
Cosmos 1726 4.3 18:04:26 10° SW 18:07:44 28° WNW 18:11:02 10° N
CZ-2C R/B 3.3 18:02:35 10° SSE 18:08:20 64° ENE 18:14:01 10° N
Cosmos 2297 Rocket 3.0 18:04:08 10° NNW 18:09:16 33° NE 18:12:09 21° E
Cosmos 2266 Rocket 4.4 18:03:47 10° NNW 18:09:54 69° W 18:16:06 10° S
Cosmos 2369 Rocket 3.2 18:05:13 10° SW 18:10:40 47° NW 18:16:12 10° NNE
Cosmos 1689 Rocket 2.1 18:07:50 10° N 18:10:45 78° WNW 18:13:38 10° SSW
BREEZE-M R/B 3.7 18:03:15 10° W 18:12:40 83° S 18:14:14 28° E
Cosmos 1758 Rocket 3.8 18:08:38 10° NNW 18:13:05 76° W 18:17:29 10° S
SJ-11-01 4.4 18:08:57 10° SE 18:13:26 49° ENE 18:17:57 10° N
In-Cosmos 22 Rocket 4.5 18:10:29 10° N 18:15:29 40° ENE 18:19:42 14° SE
Cosmos 1726 Rocket 3.6 18:13:45 10° S 18:17:56 50° E 18:22:10 10° NNE
Cosmos 1818 3.6 18:13:44 10° SW 18:19:10 83° NW 18:24:40 10° NE
USA 307 3.5 18:16:22 10° W 18:20:33 49° N 18:22:42 25° ENE
PSLV R/B 4.0 18:17:49 10° NNE 18:22:04 82° WNW 18:26:14 10° SSW
Cosmos 1953 4.4 18:21:19 10° SW 18:24:48 29° WNW 18:28:19 10° N
Helios 1A Rocket 3.6 18:20:48 10° S 18:24:53 58° WSW 18:28:58 10° NNW
USA 308 3.5 18:20:59 10° W 18:25:09 48° N 18:27:06 27° NE
CSL-04 Debris 4.1 18:20:04 10° SSE 18:25:27 70° ENE 18:30:54 10° NNW
SKYMED 2 4.0 18:21:16 10° N 18:25:37 66° WNW 18:29:55 10° SSW
Ariane Rocket 3.8 18:26:41 28° E 18:27:36 30° ENE 18:32:00 10° N
Cosmos 2219 3.6 18:22:49 10° NNW 18:28:22 45° NE 18:30:55 28° ESE
Timation 2 Rocket 4.1 18:22:31 10° NNW 18:29:00 68° NE 18:34:14 18° SE
USA 116 4.4 18:24:54 10° NNE 18:29:58 61° ESE 18:35:13 10° S
FALCON 9 DEB 3.1 18:26:43 10° WSW 18:30:09 76° NNW 18:31:02 46° NE
Cosmos 1606 Rocket 3.4 18:26:18 10° S 18:30:39 85° E 18:35:03 10° N
Geosat 3.9 18:26:40 10° NNE 18:31:45 83° ESE 18:36:47 10° SSW
SL-4 R/B 1.6 18:28:39 10° WSW 18:32:13 78° SSE 18:33:10 48° E
SL-08 RB Rocket 4.1 18:33:52 37° E 18:34:31 39° ENE 18:38:42 10° N
NOSS 2-1 (E) 4.4 18:36:50 10° WSW 18:39:59 36° NW 18:42:16 18° NNE
Cosmos 1340 2.6 18:37:55 10° N 18:41:40 56° ENE 18:41:40 56° ENE
SL-08 ROCKET BODY 4.5 18:36:00 10° N 18:41:57 55° ENE 18:46:19 19° SSE
Cosmos 1346 Rocket 4.2 18:39:06 10° N 18:41:13 24° NNE 18:41:13 24° NNE
Cosmos 2058 4.0 18:42:01 10° N 18:44:31 29° NNE 18:44:31 29° NNE
S3M 4.2 18:40:56 10° SSE 18:46:35 42° E 18:52:18 10° NNE
CRYOSAT 2 4.3 18:42:51 10° NNE 18:47:40 57° E 18:52:26 10° S
Cosmos 2058 Rocket 3.0 18:43:46 10° S 18:48:10 66° E 18:52:39 10° NNE
Cosmos 1331 Rocket 3.8 18:46:36 10° SSW 18:51:45 78° ESE 18:56:56 10° NNE
Resurs 01 Rocket 3.9 18:54:26 12° NNE 18:54:26 12° NNE 18:54:51 10° NNE
Cosmos 2228 3.6 18:48:04 10° SSW 18:52:13 56° WNW 18:56:26 10° N
Cosmos 1953 Rocket 4.2 18:49:55 10° NNW 18:54:13 55° W 18:58:31 10° S
Cosmos 292 Rocket 3.6 18:52:59 10° S 18:57:43 66° ESE 18:59:05 44° NE
MOS 1 Rocket 3.1 18:54:01 10° NNE 18:58:30 85° E 19:03:13 10° SSW
Cosmos 1417 Rocket 4.4 18:54:25 10° S 19:00:33 65° E 19:06:47 10° NNE
NOSS 2-2 (E) 4.4 18:55:42 10° NW 19:01:10 86° NE 19:04:16 36° SE
CZ-4 R/B 3.3 18:59:00 10° SSW 19:02:30 30° W 19:05:58 10° NNW
Aureole 3 Rocket 2.8 19:04:09 30° SSW 19:05:51 79° W 19:10:26 10° N
MetOp-A 4.2 19:06:21 53° ENE 19:06:30 53° ENE 19:11:44 10° N
CZ-4C R/B 4.0 19:04:57 10° NW 19:10:09 26° N 19:12:49 21° NE
ERBS 3.9 19:08:31 10° W 19:11:11 31° NNW 19:11:11 31° NNW
Cosmos 2227 Rocket 2.1 19:06:49 10° NNW 19:12:30 69° ENE 19:13:12 62° ESE
Cosmos 1486 Rocket 3.9 19:07:23 10° NNW 19:12:44 67° ENE 19:13:00 66° E
Cosmos 1110 Rocket 4.3 19:08:17 10° SSW 19:13:33 67° WNW 19:18:46 10° NNE
USA 305 3.5 19:10:40 10° WNW 19:14:39 49° N 19:14:39 49° N
Cosmos 1302 Rocket 4.1 19:11:46 10° SSW 19:16:03 57° SSE 19:16:03 57° SSE
NOSS 2-2 (D) 4.4 19:11:42 10° NW 19:17:05 90° WSW 19:19:03 50° SE
Cosmos 1892 3.6 19:15:07 10° NNW 19:17:51 43° NNW 19:17:51 43° NNW
Cosmos 1553 Rocket 4.0 19:13:45 10° S 19:20:09 86° W 19:26:32 10° N
USA 306 3.6 19:16:41 10° WNW 19:20:24 47° NNW 19:20:24 47° NNW
ATLAS 5 CENTAUR R/B 3.6 19:18:22 10° WNW 19:21:57 23° NNW 19:24:08 18° NNE
Lacrosse 5 2.7 19:19:07 10° W 19:23:55 41° NNW 19:24:50 38° NNE
H-2A R/B 3.1 19:19:33 10° S 19:24:40 46° W 19:29:55 10° NNW
Cosmos 968 Rocket 3.4 19:19:35 10° NNW 19:24:40 76° NE 19:24:40 76° NE
ARGOS 3.7 19:23:47 16° S 19:28:04 56° W 19:33:25 10° NNW
USA 215 3.4 19:27:26 47° SSE 19:29:20 69° SW 19:35:53 10° WNW
SeaSat 1 4.0 19:25:37 13° S 19:29:29 32° WSW 19:33:54 10° NW
Cosmos 2263 Rocket 3.8 19:26:11 10° NNW 19:29:39 22° NNE 19:29:39 22° NNE
CZ-2C R/B 3.6 19:25:49 10° NNE 19:29:06 36° NNE 19:29:06 36° NNE
ATLAS 2AS CENTAUR R/B 3.6 19:25:57 10° NW 19:33:03 37° NNE 19:34:19 35° NE
BREEZE-M R/B 4.0 19:29:53 10° W 19:34:37 89° S 19:35:53 64° E
Cosmos 1745 Rocket 4.3 19:36:24 10° NNW 19:42:36 67° W 19:45:39 31° SSW
Cosmos 2297 Rocket 2.7 19:48:05 10° NW 19:53:36 54° WSW 19:53:59 53° SW
Ariane Rocket 4.0 20:06:54 45° W 20:06:54 45° W 20:11:19 10° NNW
Cosmos 2219 4.3 20:07:11 10° NW 20:12:27 37° WSW 20:12:52 37° WSW
Cosmos 1709 Rocket 4.3 20:07:01 10° NNW 20:12:56 66° WNW 20:12:56 66° WNW
Resurs 01 Rocket 4.4 20:32:01 13° NNW 20:32:01 13° NNW 20:32:29 10° NNW
Cosmos 2227 Rocket 4.3 20:51:43 10° NW 20:55:02 22° W 20:55:02 22° W
CZ-4C R/B 3.9 20:53:50 10° NW 20:58:00 36° N 20:58:00 36° N
Cosmos 2263 Rocket 4.4 21:09:40 10° NNW 21:11:20 20° NNW 21:11:20 20° NNW
ATLAS 2AS CENTAUR R/B 4.0 21:17:20 10° NW 21:21:44 38° NW 21:21:44 38° NW
